VLO6016 SBPA-SBVT

Flight info

Callsign VLO6016
Flight time N/A
Altitude FL350
Route KORG2A UBNUT UN857 UDIRA UL206 TODET MIKE1A
Aircraft B703/H-VRDW/C

Departure

Time N/A
Airport Porto Alegre-Salgado Filho International Airport (SBPA)

Arrival

Time 2026-04-30 18:48
Airport Eurico de Aguiar Salles International Airport (SBVT)
Time Latitude Longitude Altitude Speed Heading
2026-04-30 17:39 -26.14145 -46.44965 36233 ft 500 kts 46°
2026-04-30 17:41 -25.94822 -46.22564 35561 ft 507 kts 46°
2026-04-30 17:42 -25.89942 -46.16918 35313 ft 509 kts 46°
2026-04-30 17:42 -25.82609 -46.08441 35003 ft 509 kts 46°
2026-04-30 17:43 -25.77727 -46.02799 34995 ft 505 kts 46°
2026-04-30 17:44 -25.63233 -45.86080 34995 ft 500 kts 46°
2026-04-30 17:47 -25.41549 -45.61328 34995 ft 498 kts 45°
2026-04-30 17:48 -25.24685 -45.42160 34995 ft 498 kts 45°
2026-04-30 17:50 -25.05402 -45.20326 34995 ft 498 kts 45°
2026-04-30 17:52 -24.90922 -45.03984 34995 ft 498 kts 45°
2026-04-30 17:54 -24.69183 -44.79526 34996 ft 498 kts 45°
2026-04-30 17:56 -24.49851 -44.57833 34995 ft 498 kts 45°
2026-04-30 17:57 -24.42498 -44.49801 35157 ft 496 kts 44°
2026-04-30 17:58 -24.35208 -44.41862 35528 ft 493 kts 44°
2026-04-30 17:59 -24.25516 -44.31323 36025 ft 490 kts 44°
2026-04-30 18:00 -24.15865 -44.20839 36236 ft 493 kts 44°
2026-04-30 18:01 -24.03640 -44.07558 36262 ft 498 kts 45°
2026-04-30 18:02 -23.88818 -43.91573 36290 ft 501 kts 44°
2026-04-30 18:04 -23.73974 -43.75607 36616 ft 498 kts 44°
2026-04-30 18:06 -23.54406 -43.54042 36524 ft 504 kts 46°
2026-04-30 18:08 -23.37529 -43.34743 36508 ft 504 kts 46°
2026-04-30 18:10 -23.18087 -43.12884 36502 ft 504 kts 45°
2026-04-30 18:11 -23.00956 -42.93830 36418 ft 504 kts 45°
2026-04-30 18:12 -22.94430 -42.84972 36419 ft 504 kts 56°
2026-04-30 18:13 -22.90564 -42.78629 36419 ft 504 kts 56°
2026-04-30 18:14 -22.81005 -42.62782 36420 ft 504 kts 57°
2026-04-30 18:15 -22.69574 -42.43739 36431 ft 504 kts 57°
2026-04-30 18:16 -22.61946 -42.31033 36433 ft 504 kts 57°
2026-04-30 18:17 -22.57466 -42.25273 36434 ft 503 kts 43°
2026-04-30 18:18 -22.49551 -42.17836 36433 ft 503 kts 40°
2026-04-30 18:18 -22.44233 -42.12950 36433 ft 503 kts 40°
2026-04-30 18:19 -22.38910 -42.08067 36469 ft 503 kts 40°
2026-04-30 18:19 -22.33595 -42.03193 36478 ft 503 kts 40°
2026-04-30 18:20 -22.28255 -41.98297 36484 ft 503 kts 40°
2026-04-30 18:20 -22.22935 -41.93420 36489 ft 503 kts 40°
2026-04-30 18:21 -22.17614 -41.88540 36491 ft 503 kts 40°
2026-04-30 18:21 -22.12254 -41.83672 36490 ft 504 kts 39°
2026-04-30 18:22 -22.06876 -41.78860 36487 ft 504 kts 39°
2026-04-30 18:22 -21.98812 -41.71650 36482 ft 504 kts 39°
2026-04-30 18:23 -21.93404 -41.66826 36479 ft 504 kts 39°
2026-04-30 18:23 -21.88025 -41.62045 36599 ft 502 kts 39°
2026-04-30 18:24 -21.82670 -41.57288 36738 ft 500 kts 39°
2026-04-30 18:24 -21.79992 -41.54911 36768 ft 500 kts 39°
2026-04-30 18:25 -21.74614 -41.50139 36813 ft 501 kts 39°
2026-04-30 18:25 -21.66560 -41.42996 36877 ft 499 kts 39°
2026-04-30 18:26 -21.58612 -41.35949 36300 ft 497 kts 39°
2026-04-30 18:26 -21.55952 -41.33590 35675 ft 491 kts 39°
2026-04-30 18:27 -21.50772 -41.28992 34430 ft 479 kts 39°
2026-04-30 18:27 -21.48218 -41.26734 33807 ft 475 kts 39°
2026-04-30 18:28 -21.43172 -41.22277 32561 ft 466 kts 39°
2026-04-30 18:28 -21.40685 -41.20082 31938 ft 462 kts 39°
2026-04-30 18:28 -21.35764 -41.15737 30688 ft 453 kts 39°
2026-04-30 18:29 -21.33341 -41.13595 30064 ft 449 kts 39°
2026-04-30 18:29 -21.26217 -41.07327 28197 ft 437 kts 39°
2026-04-30 18:30 -21.22329 -41.03912 27156 ft 430 kts 39°
2026-04-30 18:30 -21.16991 -40.99223 25700 ft 421 kts 39°
2026-04-30 18:31 -21.14745 -40.97251 25079 ft 417 kts 39°
2026-04-30 18:31 -21.10311 -40.93354 23833 ft 410 kts 39°
2026-04-30 18:32 -21.05935 -40.89510 22581 ft 402 kts 39°
2026-04-30 18:32 -21.03787 -40.87630 21960 ft 399 kts 39°
2026-04-30 18:32 -20.99540 -40.83914 20713 ft 391 kts 39°
2026-04-30 18:33 -20.97446 -40.82083 20090 ft 388 kts 39°
2026-04-30 18:33 -20.93313 -40.78468 18844 ft 381 kts 39°
2026-04-30 18:33 -20.91261 -40.76674 18217 ft 378 kts 39°
2026-04-30 18:34 -20.89235 -40.74902 17592 ft 374 kts 39°
2026-04-30 18:34 -20.85255 -40.71419 16347 ft 368 kts 39°
2026-04-30 18:34 -20.83285 -40.69695 15723 ft 364 kts 39°
2026-04-30 18:35 -20.81353 -40.67975 15098 ft 361 kts 43°
2026-04-30 18:35 -20.79730 -40.65948 14478 ft 359 kts 52°
2026-04-30 18:35 -20.78250 -40.63800 13851 ft 356 kts 53°
2026-04-30 18:36 -20.75389 -40.59569 12605 ft 348 kts 54°
2026-04-30 18:36 -20.74006 -40.57522 12440 ft 330 kts 54°
2026-04-30 18:36 -20.71487 -40.53792 12215 ft 296 kts 53°
2026-04-30 18:37 -20.70293 -40.52026 11793 ft 293 kts 53°
2026-04-30 18:37 -20.69101 -40.50264 11314 ft 290 kts 53°
2026-04-30 18:37 -20.67922 -40.48521 10832 ft 289 kts 53°
2026-04-30 18:37 -20.66757 -40.46797 10352 ft 287 kts 53°
2026-04-30 18:38 -20.65596 -40.45081 9868 ft 285 kts 53°
2026-04-30 18:38 -20.64445 -40.43379 9383 ft 283 kts 53°
2026-04-30 18:38 -20.63302 -40.41690 8897 ft 281 kts 53°
2026-04-30 18:38 -20.62162 -40.40005 8407 ft 279 kts 53°
2026-04-30 18:39 -20.61026 -40.38326 7915 ft 277 kts 53°
2026-04-30 18:39 -20.59911 -40.36677 7440 ft 270 kts 53°
2026-04-30 18:39 -20.58878 -40.35149 7365 ft 240 kts 53°
2026-04-30 18:39 -20.57958 -40.33788 7309 ft 214 kts 53°
2026-04-30 18:40 -20.57117 -40.32545 7067 ft 202 kts 53°
2026-04-30 18:40 -20.56302 -40.31339 6673 ft 199 kts 53°
2026-04-30 18:40 -20.55495 -40.30146 6252 ft 198 kts 53°
2026-04-30 18:40 -20.54688 -40.28953 5828 ft 197 kts 53°
2026-04-30 18:41 -20.53892 -40.27775 5409 ft 196 kts 53°
2026-04-30 18:41 -20.53101 -40.26605 4991 ft 195 kts 53°
2026-04-30 18:41 -20.52314 -40.25439 4575 ft 193 kts 53°
2026-04-30 18:41 -20.51354 -40.24480 4128 ft 191 kts 23°
2026-04-30 18:42 -20.50059 -40.24321 3680 ft 189 kts 353°
2026-04-30 18:42 -20.47453 -40.24718 2851 ft 187 kts 352°
2026-04-30 18:42 -20.46171 -40.24922 2617 ft 186 kts 352°
2026-04-30 18:45 -20.35744 -40.26497 1852 ft 140 kts 357°
2026-04-30 18:45 -20.34778 -40.26638 1836 ft 141 kts 357°
2026-04-30 18:45 -20.33812 -40.26781 1644 ft 139 kts 357°
2026-04-30 18:46 -20.32843 -40.26925 1447 ft 140 kts 357°
2026-04-30 18:46 -20.31876 -40.27067 1246 ft 140 kts 357°
2026-04-30 18:46 -20.30913 -40.27210 1049 ft 140 kts 357°
2026-04-30 18:46 -20.29946 -40.27353 849 ft 140 kts 357°
2026-04-30 18:47 -20.28985 -40.27496 647 ft 140 kts 358°
2026-04-30 18:47 -20.28021 -40.27638 451 ft 139 kts 357°
2026-04-30 18:47 -20.27068 -40.27779 246 ft 136 kts 357°
2026-04-30 18:47 -20.26138 -40.27917 17 ft 128 kts 356°
2026-04-30 18:48 -20.25363 -40.28031 9 ft 94 kts 352°
2026-04-30 18:48 -20.25004 -40.28100 8 ft 10 kts 314°
2026-04-30 18:48 -20.24996 -40.28125 8 ft 0 kts 268°
2026-04-30 18:49 -20.24997 -40.28130 8 ft 4 kts 261°
2026-04-30 18:49 -20.25038 -40.28178 8 ft 15 kts 221°
2026-04-30 18:49 -20.25165 -40.28221 9 ft 23 kts 188°
2026-04-30 18:50 -20.25332 -40.28212 9 ft 25 kts 172°
2026-04-30 18:50 -20.25511 -40.28185 9 ft 27 kts 172°
2026-04-30 18:50 -20.25587 -40.28173 10 ft 26 kts 170°
2026-04-30 18:51 -20.25673 -40.28159 10 ft 24 kts 173°
2026-04-30 18:51 -20.25831 -40.28135 11 ft 21 kts 171°
2026-04-30 18:51 -20.25967 -40.28118 12 ft 18 kts 173°
2026-04-30 18:51 -20.26083 -40.28101 13 ft 15 kts 171°
2026-04-30 18:52 -20.26187 -40.28086 14 ft 15 kts 173°
2026-04-30 18:52 -20.26295 -40.28071 15 ft 16 kts 171°
2026-04-30 18:52 -20.26407 -40.28052 16 ft 16 kts 172°
2026-04-30 18:52 -20.26485 -40.28042 17 ft 7 kts 172°
2026-04-30 18:53 -20.26505 -40.28040 17 ft 0 kts 183°
2026-04-30 18:53 -20.26518 -40.28042 17 ft 5 kts 198°
2026-04-30 18:53 -20.26528 -40.28064 17 ft 5 kts 272°
2026-04-30 18:53 -20.26534 -40.28115 16 ft 6 kts 261°
2026-04-30 18:54 -20.26537 -40.28138 16 ft 2 kts 261°
2026-04-30 18:54 -20.26540 -40.28155 16 ft 3 kts 261°
2026-04-30 18:54 -20.26541 -40.28161 16 ft 0 kts 261°